Wind_Speed
35 31 29 24 23 27 29 31 22 23 22 6 4 6 7 16 11 9 15 11 11 8 4 10 14 19 25 28 32 35 36 39 40 43 37 38 38 38 36 34 34 30 30
38 31 31 23 27 24 30 32 20 17 22 12 7 15 15 13 17 18 19 19 17 15 18 23 24 30 34 36 36 36 36 37 37 37 36 36 34 34 31 29 29 28 28
42 34 32 26 27 27 30 31 26 20 17 17 14 25 18 17 22 23 19 18 17 18 19 21 24 26 28 31 30 30 31 32 31 31 29 27 27 28 28 27 29 29 30
40 37 35 27 31 30 28 29 28 30 26 22 20 19 21 24 25 22 17 17 17 19 20 22 23 26 27 29 29 30 29 28 28 27 25 23 23 23 22 22 22 24 27
54 38 21 27 28 33 26 30 31 29 23 33 25 25 26 24 21 19 18 19 19 21 23 25 26 28 28 29 28 27 23 23 21 17 17 17 14 12 13 12 12 13 14
48 43 36 30 31 29 30 34 32 36 41 30 28 27 23 19 19 17 19 20 22 22 21 21 22 22 23 22 20 20 18 18 17 17 16 15 13 9 9 10 11 11 12
42 39 25 27 30 31 32 36 41 40 28 27 24 20 19 18 18 19 20 21 18 18 20 19 20 19 18 18 17 18 18 17 18 19 17 12 10 10 12 13 14 14 16
33 34 38 34 34 33 38 36 39 34 19 18 15 15 15 16 20 20 20 18 17 18 18 19 18 18 19 19 19 19 18 18 19 17 15 12 12 12 11 11 12 15 18
26 28 30 36 43 40 41 37 37 20 15 12 12 13 14 18 20 20 20 19 19 19 19 18 19 20 19 18 17 16 17 18 18 16 15 14 14 13 13 16 18 15 17
25 23 22 18 21 26 26 26 16 15 14 13 14 15 15 18 19 19 19 20 21 21 19 19 20 20 19 17 16 14 14 15 15 15 15 16 16 16 16 17 18 18 18
22 21 17 15 15 8 9 13 13 14 14 14 16 15 16 18 19 19 20 22 22 22 23 23 22 20 20 20 18 17 16 17 18 17 18 20 18 18 16 16 18 19 18
19 18 15 13 12 13 13 12 13 12 13 13 14 15 17 20 21 21 23 24 24 24 26 27 24 22 21 21 21 21 20 20 21 22 22 22 23 22 22 21 20 19 17
18 16 15 14 13 14 11 12 12 11 12 14 15 17 19 20 22 24 26 27 27 28 29 29 28 26 23 23 24 23 23 23 23 23 23 24 24 24 24 22 21 19 17
14 15 15 16 14 14 12 13 14 15 16 18 19 20 21 21 24 26 28 29 29 29 29 30 29 27 25 27 27 26 25 25 24 24 24 24 25 24 24 23 24 24 23
15 14 13 14 15 15 15 16 18 20 21 23 23 23 25 22 22 23 26 28 29 29 30 29 29 29 30 30 30 29 28 27 26 26 27 25 25 24 26 27 27 27 26
17 16 17 17 17 17 19 20 22 23 25 25 24 24 23 22 23 24 24 25 28 28 30 30 32 33 32 32 31 32 30 29 27 26 27 28 31 29 29 30 31 30 32
16 17 19 21 20 21 21 22 24 24 24 25 25 23 25 24 23 23 24 25 25 28 31 33 34 33 33 34 34 33 30 29 27 27 26 25 27 30 32 33 32 32 33
16 17 18 19 22 22 22 25 25 24 23 24 26 26 25 24 23 24 25 28 29 31 31 32 34 34 33 33 33 31 28 28 32 26 29 30 30 32 32 32 33 34 35
16 16 18 19 19 21 24 23 24 24 24 26 27 27 25 26 26 26 27 29 28 27 27 28 30 32 31 32 30 25 30 33 33 30 26 30 31 35 36 37 38 39 39
19 18 19 20 21 21 23 24 25 24 26 29 29 28 25 23 29 26 30 28 24 24 26 26 28 31 29 29 25 23 27 33 34 35 37 38 37 38 40 41 41 42 43
19 21 22 23 25 24 25 26 27 28 30 32 31 32 33 30 25 29 30 25 21 13 19 24 22 24 27 30 31 30 31 38 29 31 37 38 41 44 44 46 47 48 48
23 28 27 25 25 25 27 29 29 30 32 38 37 33 20 21 25 25 23 22 23 23 22 22 23 23 27 33 33 33 32 32 32 31 35 35 40 45 49 51 51 51 52
29 31 29 27 24 25 27 28 29 31 34 31 33 35 29 29 25 26 25 24 26 25 23 25 22 24 25 32 34 33 34 31 30 30 36 42 44 46 47 48 50 52 53
31 30 25 25 26 27 27 25 27 30 31 28 32 36 24 23 25 25 21 24 24 25 25 25 28 28 30 29 30 32 34 33 34 34 37 42 46 49 51 54 51 47 54
19 21 21 23 26 29 27 22 27 30 30 28 29 30 28 26 25 27 24 22 24 24 28 25 29 36 40 47 32 29 27 35 37 39 40 48 49 50 52 49 49 59 63
24 22 23 22 25 24 29 32 29 30 30 27 27 26 27 24 22 28 28 27 24 32 31 29 31 35 44 42 41 26 45 38 38 51 47 46 58 51 55 58 57 66 69
Wind_Direction
279 283 291 299 308 307 305 315 1 343 331 18 356 298 350 352 342 316 295 284 291 313 245 196 227 253 257 259 266 270 278 278 284 285 292 290 290 290 290 289 286 285 281
269 270 283 294 298 299 314 324 333 327 325 314 277 7 349 334 291 258 254 257 262 249 237 228 232 245 253 258 263 268 271 277 281 285 286 286 286 287 284 283 283 283 280
267 274 273 280 281 296 301 307 319 324 320 313 316 311 299 263 260 255 253 255 258 257 254 255 256 259 262 264 269 274 277 281 282 282 281 282 283 282 284 285 285 285 282
267 250 256 269 279 278 287 298 309 310 307 291 293 287 265 263 265 264 267 268 265 265 266 266 268 270 272 277 276 277 278 281 282 280 280 281 280 282 285 283 285 287 286
268 268 260 270 273 280 291 294 297 305 314 305 291 280 270 260 252 254 259 262 266 270 273 275 276 277 279 279 279 278 279 279 279 279 281 283 288 285 281 287 291 292 296
268 280 260 260 268 276 284 288 291 299 305 301 281 269 260 248 249 253 257 264 269 273 275 279 282 288 291 288 283 282 279 275 267 276 280 282 271 263 272 277 279 285 295
271 282 245 245 265 279 283 289 295 299 299 285 265 261 247 247 249 254 261 266 268 277 283 284 286 289 288 284 282 280 277 276 274 273 274 249 249 266 276 286 297 301 295
279 284 292 284 283 272 273 277 291 294 284 270 248 242 242 253 261 263 261 261 270 277 279 280 278 280 283 283 281 277 274 269 267 265 251 244 260 276 283 291 307 299 287
286 280 293 288 263 272 277 283 282 263 264 259 247 240 258 261 266 265 261 260 266 269 270 266 274 279 277 275 275 275 266 258 257 252 241 255 273 269 277 284 287 290 287
291 288 293 313 301 276 270 271 246 257 254 248 244 262 265 266 269 260 259 261 262 266 263 264 272 273 273 270 262 253 249 252 251 248 254 266 266 270 274 273 280 288 282
282 277 291 301 306 300 234 236 243 251 246 242 259 268 266 266 268 263 262 265 264 263 259 259 265 267 268 261 251 246 250 255 256 254 255 259 256 264 273 278 278 287 294
271 275 285 291 291 270 248 244 245 239 250 259 267 273 273 269 268 265 265 267 269 265 259 256 259 259 259 257 252 251 253 256 254 252 256 256 260 271 278 283 280 280 280
271 276 277 280 281 270 255 235 232 248 259 268 275 276 274 272 269 269 267 265 265 264 260 254 251 253 251 248 251 254 257 251 252 256 260 262 263 266 271 278 283 280 274
266 278 278 279 277 266 248 244 252 263 270 276 279 278 277 272 271 270 269 267 265 264 262 256 252 249 252 250 253 257 255 254 257 260 265 269 270 270 271 279 285 282 282
282 277 272 269 269 263 259 261 266 271 276 281 286 283 281 283 281 272 272 271 269 268 267 264 260 256 255 254 254 257 256 257 259 263 267 271 268 269 275 279 284 283 280
278 279 273 272 270 265 262 263 270 277 282 283 280 278 278 276 275 277 275 272 274 271 268 266 263 263 262 260 255 256 258 260 263 262 271 271 270 278 281 284 284 281 280
275 271 273 275 271 268 266 266 272 273 275 278 276 275 279 280 282 284 281 280 275 270 268 268 264 263 262 257 251 252 256 260 264 266 265 277 277 274 271 273 277 280 282
274 272 273 273 274 270 263 267 270 272 274 274 276 279 282 283 287 287 283 278 275 270 265 262 261 262 262 258 253 256 261 249 257 261 275 277 277 280 279 280 281 283 285
283 279 276 276 276 275 275 271 268 269 268 270 276 281 287 289 292 288 287 284 276 271 270 270 268 264 262 259 257 264 266 265 274 274 273 270 277 277 275 277 282 284 284
280 278 282 282 283 283 279 276 274 271 276 285 289 292 291 290 298 283 297 296 288 283 284 275 269 266 264 263 264 267 261 269 272 278 275 273 277 280 281 280 282 285 287
280 284 285 281 278 278 277 276 276 279 284 289 285 282 296 281 287 288 295 295 295 287 280 273 266 262 259 257 255 255 256 267 269 270 273 275 278 284 285 285 287 288 288
283 289 288 286 285 282 278 278 281 280 278 290 281 300 281 286 297 281 283 283 281 278 274 274 272 272 273 273 272 270 265 265 265 278 281 278 279 279 279 281 285 288 291
285 290 290 284 285 284 283 284 284 285 285 284 286 288 292 297 293 288 280 276 275 272 271 273 275 279 275 282 276 277 269 273 273 276 281 282 284 284 286 288 290 290 291
290 291 296 291 291 292 286 285 284 285 286 289 282 295 273 284 288 287 272 264 264 275 277 287 290 289 277 270 281 282 274 275 281 279 277 277 281 282 283 286 290 292 293
299 301 291 291 291 294 280 293 292 290 286 288 292 294 287 290 288 287 289 292 284 270 270 277 283 268 272 268 250 297 259 279 283 284 286 286 283 287 289 292 289 297 297
294 290 286 293 295 302 297 299 293 294 294 288 288 287 290 288 291 293 295 278 267 272 279 282 280 284 287 301 287 270 283 270 273 283 284 291 290 290 293 294 294 293 298
Height
5863 5861 5860 5857 5853 5853 5847 5845 5846 5849 5850 5841 5845 5847 5847 5849 5847 5848 5849 5848 5847 5847 5848 5852 5855 5857 5857 5858 5859 5860 5858 5857 5856 5854 5856 5853 5851 5851 5851 5849 5848 5848 5847
5855 5856 5853 5850 5849 5846 5842 5844 5844 5847 5843 5841 5841 5843 5844 5845 5844 5845 5842 5843 5843 5844 5844 5845 5848 5850 5852 5852 5853 5853 5852 5851 5850 5848 5847 5846 5844 5843 5843 5842 5841 5841 5840
5840 5843 5842 5840 5842 5842 5842 5842 5843 5842 5840 5840 5837 5836 5839 5837 5839 5838 5837 5837 5838 5840 5840 5841 5843 5845 5846 5846 5845 5843 5843 5843 5842 5841 5839 5839 5838 5838 5835 5834 5834 5835 5834
5827 5828 5832 5831 5834 5838 5837 5835 5835 5837 5836 5834 5832 5830 5831 5830 5831 5831 5832 5833 5833 5834 5835 5835 5836 5837 5837 5835 5836 5835 5835 5835 5834 5833 5833 5832 5832 5829 5829 5829 5828 5826 5825
5815 5779 5814 5820 5824 5824 5826 5828 5827 5828 5827 5829 5825 5823 5823 5823 5823 5824 5826 5827 5828 5829 5829 5829 5830 5829 5828 5827 5828 5827 5827 5827 5826 5826 5826 5826 5825 5824 5825 5824 5824 5823 5822
5811 5811 5811 5812 5815 5816 5818 5820 5819 5819 5820 5819 5816 5815 5815 5816 5817 5818 5821 5822 5822 5823 5822 5823 5822 5821 5820 5820 5820 5820 5821 5820 5820 5820 5820 5821 5821 5821 5822 5822 5822 5822 5820
5804 5804 5796 5804 5806 5807 5808 5810 5811 5812 5808 5807 5809 5808 5811 5812 5813 5814 5816 5816 5815 5815 5815 5815 5815 5814 5815 5815 5815 5815 5815 5814 5814 5815 5816 5817 5817 5818 5818 5818 5817 5816 5815
5797 5797 5799 5800 5800 5799 5800 5801 5803 5804 5803 5801 5802 5803 5807 5807 5810 5809 5809 5809 5810 5810 5808 5809 5809 5810 5809 5809 5809 5810 5810 5809 5810 5810 5812 5813 5814 5814 5814 5813 5813 5813 5812
5792 5793 5793 5790 5790 5793 5792 5793 5797 5798 5798 5798 5799 5800 5801 5802 5803 5803 5804 5803 5805 5805 5805 5804 5804 5805 5804 5804 5805 5805 5805 5805 5805 5807 5809 5809 5810 5810 5810 5809 5810 5810 5808
5783 5784 5784 5783 5782 5781 5784 5787 5789 5791 5793 5793 5796 5797 5796 5797 5797 5797 5798 5798 5799 5799 5798 5798 5800 5799 5800 5800 5800 5801 5801 5801 5802 5802 5804 5805 5805 5805 5805 5805 5804 5804 5803
5782 5782 5781 5781 5780 5779 5781 5784 5784 5787 5789 5791 5792 5791 5791 5792 5792 5793 5793 5793 5793 5792 5793 5793 5793 5794 5794 5796 5796 5796 5797 5797 5798 5799 5799 5799 5800 5800 5800 5799 5799 5798 5796
5777 5777 5777 5778 5778 5778 5779 5779 5781 5783 5784 5785 5785 5785 5786 5786 5786 5785 5787 5787 5786 5787 5787 5787 5789 5790 5789 5789 5790 5791 5792 5792 5792 5794 5794 5794 5793 5793 5792 5792 5792 5791 5790
5773 5774 5774 5775 5775 5775 5775 5776 5778 5779 5780 5780 5780 5780 5780 5780 5780 5780 5781 5780 5780 5780 5780 5781 5782 5782 5782 5782 5783 5785 5786 5786 5786 5787 5786 5786 5785 5785 5785 5784 5783 5783 5783
5769 5769 5770 5770 5771 5771 5771 5772 5774 5774 5774 5775 5775 5774 5774 5774 5774 5774 5774 5774 5774 5774 5774 5774 5775 5776 5776 5776 5776 5776 5778 5778 5778 5778 5778 5777 5777 5776 5776 5775 5775 5774 5775
5764 5764 5765 5766 5766 5766 5767 5768 5768 5769 5769 5769 5768 5768 5766 5767 5766 5766 5765 5765 5766 5766 5766 5766 5766 5768 5768 5768 5769 5769 5769 5769 5770 5770 5770 5770 5769 5769 5768 5767 5767 5766 5765
5758 5759 5760 5760 5760 5761 5761 5762 5763 5763 5763 5763 5762 5761 5760 5760 5759 5757 5757 5757 5756 5757 5757 5758 5758 5758 5759 5759 5761 5761 5761 5761 5762 5762 5761 5761 5761 5760 5759 5758 5757 5756 5756
5753 5754 5754 5754 5755 5755 5755 5756 5756 5756 5756 5755 5755 5755 5754 5753 5752 5750 5749 5748 5748 5748 5747 5747 5749 5748 5748 5748 5750 5750 5751 5752 5753 5753 5752 5751 5751 5751 5751 5750 5748 5747 5746
5748 5749 5749 5749 5749 5749 5750 5749 5749 5749 5748 5748 5747 5747 5745 5743 5742 5741 5741 5739 5738 5737 5737 5737 5737 5736 5736 5736 5738 5741 5743 5736 5732 5737 5741 5741 5741 5740 5740 5739 5737 5736 5735
5743 5743 5743 5743 5743 5743 5742 5743 5742 5741 5741 5740 5740 5738 5737 5734 5733 5732 5729 5727 5727 5727 5726 5726 5726 5724 5724 5725 5730 5734 5731 5732 5731 5732 5729 5731 5731 5730 5729 5728 5726 5724 5722
5738 5737 5736 5736 5735 5735 5735 5734 5734 5734 5733 5731 5730 5729 5728 5727 5724 5721 5719 5718 5717 5718 5717 5715 5715 5715 5715 5717 5721 5724 5724 5719 5716 5719 5723 5721 5718 5718 5717 5716 5714 5712 5709
5731 5731 5730 5729 5728 5727 5726 5725 5724 5723 5721 5720 5718 5716 5714 5715 5718 5713 5710 5709 5708 5708 5707 5707 5707 5706 5705 5703 5704 5707 5708 5701 5700 5709 5711 5707 5705 5705 5703 5700 5698 5696 5693
5724 5722 5721 5720 5719 5719 5718 5716 5716 5714 5711 5710 5710 5715 5710 5708 5707 5704 5700 5701 5700 5700 5699 5700 5699 5698 5698 5698 5700 5702 5701 5700 5698 5696 5697 5697 5696 5694 5691 5689 5686 5683 5679
5715 5715 5713 5712 5713 5711 5709 5708 5706 5704 5703 5702 5702 5701 5700 5700 5697 5695 5690 5690 5692 5690 5691 5691 5690 5690 5690 5688 5688 5689 5689 5686 5685 5679 5681 5681 5679 5677 5675 5674 5671 5667 5663
5706 5707 5706 5705 5702 5698 5698 5699 5699 5696 5693 5693 5693 5689 5689 5689 5688 5687 5682 5682 5679 5679 5680 5680 5679 5682 5680 5678 5678 5679 5677 5674 5670 5668 5667 5666 5663 5660 5658 5655 5653 5650 5646
5699 5699 5698 5697 5694 5692 5692 5690 5687 5686 5687 5684 5682 5681 5680 5680 5677 5676 5674 5672 5671 5672 5672 5671 5670 5667 5663 5649 5652 5657 5662 5661 5657 5655 5652 5649 5647 5643 5642 5640 5635 5632 5626
5692 5691 5691 5689 5686 5686 5682 5682 5679 5679 5677 5677 5675 5673 5671 5669 5667 5662 5661 5663 5662 5663 5661 5660 5659 5660 5652 5646 5635 5627 5641 5620 5621 5642 5639 5634 5630 5625 5623 5619 5615 5610 5605